Regional Weather Roundup
Issued by NWS

Home | Current Version | Previous Version | Graphics & Text | Print | Product List | Glossary On
Versions: 1 2 3 4 5 6 7 8 9 10 11 12 13 14 15 16 17 18 19 20 21 22 23 24 25 26 27 28 29 30 31 32 33 34 35 36 37 38 39 40 41 42 43 44 45 46 47 48 49 50
000
ASUS44 KMEG 022010
RWRTN
TENNESSEE HOURLY STATE WEATHER ROUNDUP
NATIONAL WEATHER SERVICE MEMPHIS TN
300 PM CDT THU JUL 02 2015

TNZ002-004-019-021-049-052-054-088>092-022100-
WEST TENNESSEE

CITY           SKY/WX    TMP DP  RH WIND       PRES   REMARKS
MEMPHIS INTL   PTSUNNY   85  71  63 SW12G22   29.89F HX  90
NWS MEMPHIS      N/A     84 N/A N/A MISG        N/A
JACKSON        PTSUNNY   85  71  63 SW14      29.89S HX  90
DYERSBURG        N/A    N/A N/A N/A MISG        N/A
PARIS          CLOUDY    79  72  78 W5        29.85F
LEXINGTON      CLOUDY    81  72  74 SW14      29.88S
$$

TNZ008-025-027-028-033-062-065-066-022100-
NORTH MIDDLE TENNESSEE

CITY           SKY/WX    TMP DP  RH WIND       PRES   REMARKS
NASHVILLE      PTSUNNY   82  74  76 S10       29.89F
CLARKSVILLE    PTSUNNY   80  71  74 SW10      29.85F
SMYRNA         CLOUDY    82  73  74 S9        29.90F
COOKEVILLE     MOSUNNY   82  73  74 SW7       29.92F
CROSSVILLE     PTSUNNY   77  68  73 S7        29.97F
$$

TNZ061-075-076-078-094-096-097-022100-
SOUTH MIDDLE TENNESSEE

CITY           SKY/WX    TMP DP  RH WIND       PRES   REMARKS
FAYETTEVILLE   PTSUNNY   81  68  65 SW12      29.93F
TULLAHOMA      PTSUNNY   75  70  83 S3        29.95F
WINCHESTER     PTSUNNY   77  72  83 CALM      29.95F
MCMINNVILLE    MOSUNNY   82  72  69 SW8       29.93F
COLUMBIA       PTSUNNY   81  75  83 SW7       29.89F
SHELBYVILLE    CLOUDY    75  73  94 SE6       29.93F VSB 1
$$

TNZ017-018-042-046-047-022100-
NORTHEAST TENNESSEE

CITY           SKY/WX    TMP DP  RH WIND       PRES   REMARKS
TRI CITIES     CLOUDY    75  64  68 SW15G22   29.96F
ELIZABETHTON   CLOUDY    73  64  73 VRB6      29.96F
$$

TNZ012-013-036-069-073-074-022100-
CENTRAL EAST TENNESSEE

CITY           SKY/WX    TMP DP  RH WIND       PRES   REMARKS
KNOXVILLE      CLOUDY    77  69  76 VRB5      29.93F
OAK RIDGE      PTSUNNY   77  68  73 W8        29.95F
GATLINBURG     CLEAR     75  66  73 SW3       29.94F
MORRISTOWN       N/A     73  70  88 W5        29.96F
$$

TNZ083-085-099-022100-
SOUTHEAST TENNESSEE

CITY           SKY/WX    TMP DP  RH WIND       PRES   REMARKS
CHATTANOOGA    PTSUNNY   73  67  81 W3        29.98F
$$

SKY/WX REPORTED AS FAIR MEANS FEW OR NO CLOUDS BELOW
12 THOUSAND FEET.




USA.gov is the U.S. government's official web portal to all federal, state and local government web resources and services.